STARLINK-11624, 63105

Orbit data source: Space-Track

STARLINK-11624, 63105 is a payload satellite owned by SpaceX/Seattle (US) in LEO that was launched on Thu, 27 Feb 2025 UTC via an FALCON 9 launch vehicle from the Air Force Eastern Test Range (AFETR). Payload-class satellites include a variety of spacecraft equipped with specific instruments for various scientific and technological missions. These include communications satellites like Starlink; space stations such as the ISS; scientific satellites like the Hubble; Earth observation satellites from companies like Planet Labs, Umbra, and HawkEye 360; GPS; miniature CubeSats for education and research; and military/defense satellites.

Loading next visibility...
Identifier
63105, 2025-039B
Orbit
LEO
Last TLE update
14 hours ago
Origin
Manufacturer
SpaceX/Seattle
Mission
Operational Commercial Communications
Bus & Motor
STARLINK V2M, Unknown motor
Mass
730 kg wet, ~700 kg dry
Launch date (UTC)
2025-02-27 (4 months ago)
Launch vehicle
FALCON 9
Launch site
Air Force Eastern Test Range (AFETR)
Object type
Payload
Rocket body
Debris
Shape & HBR
Box + 2 Pan, 29 m
Radar Cross Section
36.964 m², Large (>1 m²)

Expand to show TLE details & history

TLE from 14 hours ago
0 STARLINK-11624
1 63105U 25039B   25181.78844784  .00156720  00000-0  12000-2 0  9997
2 63105  43.0007 315.6110 0002673 278.2528  81.8037 15.70877000 20701
Epoch: 2025-06-30T18:55Z
TLE epoch observation values (Epoch: 2025-06-30T18:55:21.893Z)
Latitude
0.00002°
Longitude
112.67658°
Altitude
355.904 km
Speed
7.698 km/s
True Right ascension
21h 02m 26s
True Declination
0° 00' 00"
Sunlit
Object was in full shadow at epoch
Visualization orbit readout
Latitude
43.04106°
Longitude
-166.1243°
Altitude
360.673 km
Speed
7.698 km/s
Apparent Right ascension
05h 32m 30s
Apparent Declination
4° 16' 46"
Sunlit
Object is in daylight
Visualization observer readout
Local Sidereal Time
20:39:26
Azimuth
55.674° ENE
Elevation
-28.447°
Doppler factor
1
Orbital elements
Apogee altitude
360.171 km
Perigee altitude
356.57 km
Semi-major axis
6,736.508 km
Eccentricity
0.00027
Inclination
43.0007°
RAAN
315.611°
Arg. of periapsis
278.2528°
True anomaly
Unknown
Mean anomaly
81.8037°
Eccentric anomaly
Unknown
Mean motion
3.92546 °/min
Orbital period
91.71 mins
BSTAR
0.0012
Loading maneuver chart data...
Loading SW <> Apogee altitude chart data...
Loading historical data...
Loading historical data...
Loading historical data...
Loading historical data...
Loading historical data...
Loading historical data...
Loading historical data...

STARLINK-11624 Visibility forecast

Observer location: undefined°, undefined°

Span
Click to sort rows by Start time (UTC) header in descending order
Start Az.
Max El. time (UTC)
Max El. Az.
Max El.
End time (UTC)
End Az.
4 mins2025-07-01 11:54:13.351Z200.419° SSW2025-07-01 11:56:13.351Z157.069° SSE20.131°2025-07-01 11:58:13.351Z103.677° ESE
4 mins2025-07-01 13:31:13.351Z263.276° W2025-07-01 13:32:13.351Z305.954° NW43.662°2025-07-01 13:35:13.351Z70.21° E
4 mins2025-07-01 15:07:13.351Z301.032° NW2025-07-01 15:08:13.351Z333.494° NNW32.455°2025-07-01 15:11:13.351Z73.496° E
4 mins2025-07-01 16:43:13.351Z289.08° WNW2025-07-01 16:45:13.351Z102.35° ESE42.986°2025-07-01 16:47:13.351Z107.84° ESE
|